Regional Weather Roundup
Issued by NWS

Home | Current Version | Previous Version | Graphics & Text | Print | Product List | Glossary On
Versions: 1 2 3 4 5 6 7 8 9 10 11 12 13 14 15 16 17 18 19 20 21 22 23 24 25 26 27 28 29 30 31 32 33 34 35 36 37 38 39 40 41 42 43 44 45 46 47 48 49 50
000
ASUS43 KOAX 301502
RWRNE

WEATHER ROUNDUP FOR NEBRASKA
NATIONAL WEATHER SERVICE OMAHA NE
1000 AM CDT THU MAR 30 2017

NOTES: SATELLITE DATA IS BEING USED TO AUGMENT CLOUD COVER ABOVE
       12000 FEET.
       "FAIR" INDICATES FEW OR NO CLOUDS BELOW 12,000 FEET WITH NO
       SIGNIFICANT WEATHER AND/OR OBSTRUCTIONS TO VISIBILITY.

  * THESE STATIONS DO NOT REPORT WEATHER SUCH AS RAIN...SNOW OR FOG.

NEZ001>004-019>022-054>056-301600-
NEBRASKA PANHANDLE

CITY           SKY/WX    TMP DP  RH WIND       PRES   REMARKS
SCOTTSBLUFF    CLOUDY    38  34  85 CALM      29.78S
ALLIANCE       CLOUDY    38  37  97 E5        29.77F WCI  34
CHADRON        CLOUDY    38  35  89 CALM      29.77F
KIMBALL        CLOUDY    44  40  86 W3        29.79S
SIDNEY         CLOUDY    44  36  73 W3        29.78F
$$

NEZ057>060-069>072-079>082-301600-
SOUTHWEST NEBRASKA

CITY           SKY/WX    TMP DP  RH WIND       PRES   REMARKS
NORTH PLATTE   CLOUDY    38  34  85 NE7       29.83R WCI  33
IMPERIAL       CLOUDY    38  36  92 N8        29.82F WCI  32
LEXINGTON      CLOUDY    37  34  90 N14       29.82F WCI  28
MCCOOK         CLOUDY    39  34  82 N13       29.83S WCI  31
OGALLALA       CLOUDY    39  38  94 CALM      29.82S
$$

NEZ005>010-023>029-035>040-094-301600-
NORTH CENTRAL NEBRASKA

CITY           SKY/WX    TMP DP  RH WIND       PRES   REMARKS
VALENTINE      CLOUDY    36  32  85 SE7       29.84S WCI  30
AINSWORTH      CLOUDY    36  35  95 NE8       29.84S WCI  30
BROKEN BOW     CLOUDY    37  33  85 N10       29.82S WCI  30
O`NEILL        CLOUDY    38  38  98 N8        29.83F WCI  32
ORD            CLOUDY    40  35  83 N16       29.80F WCI  31
THEDFORD       DRIZZLE   36  35  98 E5        29.84S WCI  32
$$

NEZ041-046>049-061>064-073>077-083>087-301600-
SOUTH CENTRAL NEBRASKA

CITY           SKY/WX    TMP DP  RH WIND       PRES   REMARKS
GRAND ISLAND   CLOUDY    38  38 100 N15       29.78S WCI  29
AURORA         CLOUDY    38  38  99 N15G26    29.77S WCI  30
HASTINGS       CLOUDY    39  36  89 N21       29.77S WCI  29
HEBRON         CLOUDY    40  37  91 N14G23    29.73R WCI  32
HOLDREGE       CLOUDY    38  34  86 N16G22    29.79F WCI  29
KEARNEY *      CLOUDY    39  34  81 N20       29.80R WCI  30
YORK           CLOUDY    39  39 100 N18       29.76R WCI  30
$$

NEZ011>018-030>034-042>045-301600-
NORTHEAST NEBRASKA

CITY           SKY/WX    TMP DP  RH WIND       PRES   REMARKS
NORFOLK        CLOUDY    38  36  92 NE10      29.78F WCI  31
ALBION         CLOUDY    40  37  87 NE14      29.79S WCI  32
BLAIR          CLOUDY    40  39  95 N14       29.72R WCI  33
FREMONT        CLOUDY    40  39  97 N10       29.75S WCI  33
TEKAMAH        CLOUDY    40  37  89 N18       29.75F WCI  31
WAYNE          CLOUDY    38  38  99 NE16      29.79F FOG     WCI  29
$$

NEZ050>053-065>068-078-088>093-301600-
SOUTHEAST NEBRASKA

CITY           SKY/WX    TMP DP  RH WIND       PRES   REMARKS
LINCOLN        CLOUDY    40  39  97 N16       29.73S FOG     WCI  31
OMAHA EPPLEY   CLOUDY    43  37  79 N17       29.71F
BEATRICE       CLOUDY    41  40  98 N20       29.69R
FALLS CITY     CLOUDY    44  42  93 N13G22    29.63S
NEBRASKA CITY  RAIN      41  41 100 NE18G25   29.66S
PLATTSMOUTH    CLOUDY    41  38  91 N12G17    29.68F FOG
$$

NEZ044-045-051>053-067-301600-
OMAHA AREA

CITY           SKY/WX    TMP DP  RH WIND       PRES   REMARKS
OMAHA EPPLEY   CLOUDY    43  37  79 N17       29.71F
BLAIR          CLOUDY    40  39  95 N14       29.72R WCI  33
FREMONT        CLOUDY    40  39  97 N10       29.75S WCI  33
MILLARD        CLOUDY    44  40  88 N10G16    29.72S
OFFUTT AFB     CLOUDY    42  39  91 N12       29.70S
PLATTSMOUTH    CLOUDY    41  38  91 N12G17    29.68F FOG
WAHOO          CLOUDY    40  38  93 N17       29.73F WCI  31
$$




USA.gov is the U.S. government's official web portal to all federal, state and local government web resources and services.